Location: Mannheim
(49.4880°N, 8.4650°E)
Time: 06:19:32
(UTC+02:00)

ACS3 Solar Sail - Pass Details

Date: 28 September 2024
Orbit: 963 x 1036 km, 97.4° (Epoch: 04 October)

Event Time Altitude Azimuth Distance (km) Brightness Sun altitude
Exits shadow 19:59:46 - 119° (ESE) 3,011 3.8 -8.9°
Reaches altitude 10° 20:00:20 10° 116° (ESE) 2,835 3.6 -8.9°
Maximum altitude 20:05:38 28° 60° (ENE) 1,816 2.8 -9.8°
Drops below altitude 10° 20:10:55 10° 4° (N) 2,826 4.3 -10.6°
Sets 20:13:44 0° 354° (N) 3,772 5.1 -11.1°
